EST,Max TemperatureF,Mean TemperatureF,Min TemperatureF,Max Dew PointF,MeanDew PointF,Min DewpointF,Max Humidity, Mean Humidity, Min Humidity, Max Sea Level PressureIn, Mean Sea Level PressureIn, Min Sea Level PressureIn, Max VisibilityMiles, Mean VisibilityMiles, Min VisibilityMiles, Max Wind SpeedMPH, Mean Wind SpeedMPH, Max Gust SpeedMPH,PrecipitationIn, CloudCover, Events, WindDirDegrees
2012-12-1,60,43,25,46,39,30,100,76,52,30.41,30.36,30.31,10,9,5,5,1,,0.00,0,,179
2012-12-2,64,47,30,52,45,36,100,76,52,30.37,30.30,30.22,10,9,2,7,3,20,T,2,Rain,234
2012-12-3,66,57,45,55,52,48,100,81,61,30.34,30.29,30.26,10,10,10,6,2,,T,5,,257
2012-12-4,66,51,35,54,48,37,100,80,59,30.34,30.25,30.17,10,7,0,9,3,,0.00,4,Fog,225
2012-12-5,57,43,29,55,39,27,100,68,35,30.27,30.21,30.13,10,10,10,9,4,,T,3,Rain,293
2012-12-6,46,34,22,39,33,25,100,80,60,30.31,30.25,30.20,10,10,7,8,2,,0.01,4,Rain,117
2012-12-7,55,45,34,54,43,37,100,90,80,30.19,30.09,30.01,10,9,3,4,1,,T,4,,125
2012-12-8,62,48,34,55,47,37,100,84,67,30.07,30.01,29.97,10,6,0,10,2,16,0.00,4,Fog,236
2012-12-9,63,50,37,57,51,41,100,87,73,30.14,30.07,29.99,10,6,0,10,4,17,0.00,6,Fog,148
2012-12-10,59,49,39,57,55,43,100,89,78,29.97,29.79,29.68,10,9,0,14,4,21,0.11,7,Fog-Rain,220
2012-12-11,39,33,26,41,34,28,100,85,70,30.19,30.01,29.79,10,10,10,10,6,17,T,4,,288
2012-12-12,39,33,26,34,31,28,100,85,70,30.34,30.29,30.19,10,10,10,6,2,,0.00,3,,64
2012-12-13,47,35,22,30,26,21,92,65,38,30.42,30.36,30.31,10,10,10,7,3,,0.00,0,,74
2012-12-14,54,36,18,34,26,19,100,63,26,30.36,30.30,30.24,10,10,7,7,1,,0.00,0,,269
2012-12-15,53,41,28,37,32,27,100,68,36,30.24,30.17,30.05,10,10,10,8,3,,T,2,,107
2012-12-16,49,43,37,52,46,37,100,88,76,30.07,29.96,29.87,10,6,2,6,1,16,0.23,6,Rain-Thunderstorm,279
2012-12-17,50,45,39,54,49,43,100,100,100,29.87,29.77,29.64,10,5,0,6,1,,0.02,6,Fog-Rain-Thunderstorm,227
2012-12-18,47,39,30,46,41,34,100,86,71,29.91,29.76,29.64,10,10,5,15,7,28,0.05,5,Rain,275
2012-12-19,56,43,29,39,35,34,100,70,40,30.15,30.01,29.87,10,10,10,12,6,22,0.00,0,,271
2012-12-20,40,36,31,43,37,34,100,87,73,30.16,29.89,29.50,10,8,1,15,7,24,0.43,4,Rain,106
2012-12-21,39,32,25,41,26,21,100,83,66,29.77,29.60,29.50,10,9,2,22,16,38,T,8,Snow,281
2012-12-22,34,30,25,25,23,19,85,71,56,30.09,29.99,29.76,10,10,5,32,17,54,T,4,Snow,289
2012-12-23,50,33,16,39,26,19,100,69,38,30.09,30.03,29.95,10,10,10,9,4,20,0.00,1,,250
2012-12-24,40,38,36,43,41,37,100,95,89,30.01,29.92,29.85,10,4,0,6,3,,0.44,8,Fog-Rain,116
2012-12-25,47,44,41,45,42,39,100,86,71,30.10,30.03,29.92,10,10,1,14,4,23,T,5,,176
2012-12-26,36,33,30,39,35,34,100,100,100,30.06,29.72,29.50,10,5,0,22,11,29,1.01,8,Fog-Rain-Snow-Thunderstorm,72
2012-12-27,33,28,23,34,28,25,100,93,85,30.07,29.89,29.62,10,10,10,27,15,44,T,7,,290
2012-12-28,33,27,21,32,28,23,100,91,82,30.12,30.04,29.93,10,10,10,7,1,,T,4,Snow,272
2012-12-29,38,33,28,41,33,27,100,89,78,29.95,29.79,29.66,10,8,1,20,8,31,0.11,8,Rain-Snow,293
2012-12-30,30,27,23,27,22,19,85,76,66,30.35,30.22,29.96,10,10,2,18,11,28,T,4,Snow,278
2012-12-31,38,29,19,30,24,19,100,71,41,30.33,30.21,30.07,10,10,10,8,2,,0.00,1,,263